Lapse_Rate
1.0 0.6 0.0 -0.4 -1.1 -1.1 -1.5 -2.3 -1.9 -1.7 -1.2 -1.2 -1.3 -1.7 -1.8 -2.1 -3.0 -2.9 -3.0 -3.5 -3.1 -2.6
0.7 0.4 0.2 -0.4 -0.9 -1.0 -1.6 -1.0 -1.1 -0.7 -0.6 -0.4 -0.6 -1.1 -1.5 -2.1 -2.4 -2.1 -1.9 -2.3 -2.2 -2.3
0.3 0.5 0.5 0.0 -0.6 -0.2 -0.9 -0.9 -0.9 -1.2 -0.2 -0.1 -0.2 -0.6 -0.8 -1.3 -1.5 -1.1 -1.3 -1.2 -1.2 -1.7
0.0 0.1 0.4 0.3 0.2 0.0 -0.6 -0.3 0.1 -0.1 0.1 0.2 -0.1 0.0 -0.4 -0.3 -0.2 -0.2 -0.3 -0.8 -0.8 -1.4
0.4 0.6 0.7 0.5 0.6 0.2 0.5 0.2 0.5 0.7 0.9 1.1 0.6 0.1 0.5 0.9 0.6 0.4 -0.0 -0.2 -0.3 -0.5
0.6 0.9 0.6 0.5 0.3 0.7 0.7 0.1 1.1 1.1 1.2 1.4 0.8 0.7 0.9 1.2 1.1 0.8 0.5 0.2 -0.2 -0.5
0.8 0.8 0.6 0.7 0.5 0.9 1.1 0.6 0.5 0.8 0.8 1.0 0.6 1.2 1.6 1.9 1.4 1.1 0.7 0.5 -0.1 -0.5
0.7 0.8 1.0 1.0 1.2 0.7 0.9 0.9 0.5 0.4 0.6 0.3 0.7 1.3 1.1 1.5 1.2 0.9 0.4 0.3 0.2 -0.3
0.8 1.2 1.4 1.3 0.8 1.2 0.4 0.6 0.4 0.3 0.2 -0.4 0.8 0.8 1.9 1.3 1.3 1.6 0.9 -0.1 -0.7 -0.6
1.4 1.6 1.8 1.9 1.7 0.9 0.6 0.4 0.4 -0.4 -0.3 -0.6 -0.7 0.4 1.8 2.3 1.7 1.3 0.6 -0.0 -0.2 0.6
2.5 1.9 2.1 2.3 2.3 1.4 0.6 0.8 0.1 -0.7 -0.8 -1.0 -0.3 0.4 1.3 2.4 1.7 1.0 0.5 0.0 -0.3 -0.8
2.6 2.5 2.3 2.4 2.0 1.6 1.3 0.8 0.2 -0.3 -1.3 -0.9 -1.0 0.5 0.9 2.0 1.2 0.8 0.0 0.1 -0.1 -0.3
2.7 2.9 2.5 2.6 2.2 1.3 1.5 1.4 1.3 0.4 -0.3 -0.2 -0.7 0.4 0.9 1.7 1.0 -0.1 -0.5 -0.8 -0.0 0.4
3.0 2.3 2.8 2.3 2.7 1.6 2.1 2.0 1.2 1.2 -0.3 0.0 0.1 -0.1 1.2 1.3 0.8 0.3 -0.6 -0.9 -1.0 -0.7
Wind_Speed
12 7 7 6 7 5 4 4 7 10 12 12 13 12 12 9 7 8 7 9 6 6
11 10 9 9 6 4 5 4 8 11 10 11 12 12 12 7 8 8 7 7 6 6
10 10 10 9 9 8 6 7 8 8 9 9 11 12 12 8 7 9 6 4 7 6
11 12 12 10 10 10 8 9 9 8 8 8 8 9 8 7 7 8 7 6 7 6
13 13 13 12 10 9 10 10 10 10 8 8 8 8 8 8 7 7 7 6 6 5
12 13 13 13 13 10 10 8 9 8 9 8 7 7 6 7 7 6 6 6 6 5
12 13 13 12 13 12 11 10 8 8 8 8 6 7 6 7 7 7 6 6 5 5
11 11 12 13 12 11 12 10 8 9 7 7 6 6 7 7 7 8 7 6 6 7
13 13 13 13 13 12 11 11 10 9 9 7 5 12 15 11 8 8 8 6 5 7
15 15 13 13 14 13 13 11 9 9 9 7 6 11 14 17 7 8 7 6 5 5
14 16 14 13 14 13 10 11 10 9 8 8 5 12 13 17 10 6 6 6 6 6
16 16 16 16 15 13 11 8 8 8 9 9 7 13 13 12 8 8 6 6 9 7
16 16 17 15 16 13 12 11 8 8 8 11 9 14 15 15 7 8 5 5 7 8
16 16 16 14 12 13 12 11 9 9 6 7 8 8 16 18 9 8 6 5 4 4
Wind_Direction
150 152 152 151 147 139 134 134 135 116 114 111 106 100 95 93 91 86 81 77 76 82
149 149 156 143 130 134 127 130 120 117 114 111 110 107 104 100 100 91 89 85 82 83
149 145 144 144 140 144 137 126 130 120 120 120 117 114 110 108 97 104 96 92 90 85
152 147 147 146 148 149 135 140 138 132 131 131 127 122 112 114 108 101 104 98 96 85
151 150 148 146 150 149 145 138 140 137 132 134 132 125 129 127 117 120 115 104 103 101
151 153 153 152 148 148 142 134 136 132 136 140 136 129 121 126 125 114 109 109 103 112
157 158 154 151 148 146 143 137 135 134 133 138 134 133 132 128 121 113 105 101 98 97
150 150 148 147 148 143 143 140 137 130 127 130 135 142 136 130 123 120 114 108 103 92
148 148 154 153 148 145 140 141 140 141 142 135 134 136 141 133 131 134 135 126 105 96
160 155 157 155 151 149 151 147 150 145 143 142 137 139 140 139 136 142 144 142 139 116
170 157 155 156 155 151 152 156 156 151 152 145 155 152 147 140 131 122 130 134 135 128
172 164 157 159 160 156 153 150 158 157 152 157 159 166 155 133 130 126 125 130 135 138
169 168 164 163 163 158 156 156 155 155 166 166 165 176 166 144 139 135 137 132 140 148
169 165 163 159 166 157 157 152 153 158 158 159 169 173 168 154 151 153 151 150 161 155